Regional Weather Roundup
Issued by NWS Jackson, KY

Home | Current Version | Previous Version | Graphics & Text | Print | Product List | Glossary On
Versions: 1 2 3 4 5 6 7 8 9 10 11 12 13 14 15 16 17 18 19 20 21 22 23 24 25 26 27 28 29 30 31 32 33 34 35 36 37 38 39 40 41 42 43 44 45 46 47 48 49 50
000
ASUS43 KJKL 050410
RWRJKL

EAST KENTUCKY HOURLY WEATHER ROUNDUP
NATIONAL WEATHER SERVICE JACKSON KY
1200 AM EDT TUE MAY 05 2015

NOTE: "FAIR" INDICATES FEW OR NO CLOUDS BELOW 12,000 FEET WITH
NO SIGNIFICANT WEATHER AND/OR OBSTRUCTIONS TO VISIBILITY.

* THESE REPORTS ARE NOT UNDER NWS QUALITY CONTROL AND MAY NOT
  REPORT WEATHER SUCH AS PRECIPITATION AND FOG.

KYZ079-080-083-085-087-088-110-112-115-119-120-050500
...EASTERN KENTUCKY...

CITY           SKY/WX    TMP DP  RH WIND       PRES   REMARKS
JACKSON        PTCLDY    69  47  45 CALM      30.26R
LONDON         CLEAR     62  51  67 CALM      30.26R
SOMERSET*      CLEAR     59  52  77 CALM      30.26S
MONTICELLO*    CLEAR     58  54  86 CALM      30.28S
MIDDLESBORO*   CLEAR     56  53  89 CALM      30.29R
HARLAN APT*      N/A     57  52  82 CALM      30.29S
HAZARD APT*    CLEAR     64  50  59 CALM      30.26S
BLACK MTN*       N/A     61  46  59 S7          N/A
PIKEVILLE APT* CLEAR     68  48  49 S3        30.26S
BIG SANDY*     CLEAR     68  51  54 CALM      30.25R
MOREHEAD APT*  PTCLDY    72  50  46 SW7       30.25S
$$

KYZ035-036-041-042-044-050-067-078-099-050500
...CENTRAL KENTUCKY...

CITY           SKY/WX    TMP DP  RH WIND       PRES   REMARKS
MT STERLING*   CLEAR     68  54  60 W5        30.25R
FLEMING/MASON* PTCLDY    66  55  68 SW6       30.23R
DANVILLE*      CLEAR     59  54  82 CALM      30.25S
RICHMOND*      CLOUDY    64  52  63 S5        30.24R
LEXINGTON      CLEAR     66  55  67 S7        30.23S
FRANKFORT      PTCLDY    67  54  63 SW5       30.21R
$$

KYZ091>093-OHZ055-061-077-WVZ005-015-034-035-042-050500
...SOUTHERN OHIO/WEST VIRGINIA...

CITY           SKY/WX    TMP DP  RH WIND       PRES   REMARKS
COVINGTON      CLOUDY    66  57  72 S6        30.20S
COLUMBUS       CLOUDY    63  61  93 CALM      30.21R
DAYTON         TSTM      64  62  93 W9        30.25R FOG
WILMINGTON     PTCLDY    60  53  77 CALM      30.21S
HUNTINGTON     PTCLDY    65  53  65 CALM      30.22R
CHARLESTON     MOCLDY    63  53  70 SE3       30.23R
PINEVILLE*     MOCLDY    57  53  86 MISG      30.32S
BECKLEY        CLEAR     59  46  62 S7        30.30S
BLUEFIELD      CLEAR     64  44  48 SW6       30.33S
$$

VAZ002-007-008-TNZ017-027-036-066-071-050500
...SOUTHWEST VIRGINIA/EAST TENNESSEE...

CITY           SKY/WX    TMP DP  RH WIND       PRES   REMARKS
WISE*            N/A     61  41  48 S5        30.34S
JONESVILLE*      N/A     55  52  88 CALM      30.31S
ABINGDON*      CLEAR     58  49  71 CALM      30.32S
BRISTOL        PTCLDY    57  51  80 N3        30.30R
KNOXVILLE      PTCLDY    66  51  58 SE3       30.26S
OAK RIDGE      CLEAR     61  53  75 CALM      30.28S
CROSSVILLE     CLEAR     62  49  62 CALM      30.30S
NASHVILLE      CLEAR     64  55  72 S3        30.23R
$$

...KEY TO REMARKS...
VSB - VISIBILITY IN MILES
WCI - WIND CHILL INDEX
HX  - HEAT INDEX

$$



USA.gov is the U.S. government's official web portal to all federal, state and local government web resources and services.